Asyut, Egypt

11:16 AM EET on September 22, 2019 (GMT +0200)
Asyut

Weather History for HEAT - August, 2019

Change the Weather History Date:

Sunday, August 25, 2019

  Actual Average Record
Temperature  
Mean Temperature 86 °F -  
Max Temperature 100 °F 94 °F - ()
Min Temperature 73 °F 68 °F - ()
Cooling Degree Days 22    
Growing Degree Days 36 (Base 50)    
Moisture  
Dew Point 58 °F    
Average Humidity 35    
Maximum Humidity 57    
Minimum Humidity 15    
Precipitation  
Precipitation 0.00 in 0.00 in - ()
Sea Level Pressure  
Sea Level Pressure 29.89 in    
Wind  
Wind Speed 4 mph ()    
Max Wind Speed 15 mph    
Max Gust Speed -    
Visibility 6.0 miles    
Events      
T = Trace of Precipitation, MM = Missing Value Source: Averaged Metar Reports

Daily Weather History Graph

Daily Weather History Graph

Search for Another Location

Airport or City:

Astronomy

Aug. 25, 2019 Rise Set
Actual Time 5:31 AM EET 6:24 PM EET
Civil Twilight 5:07 AM EET 6:47 PM EET
Nautical Twilight 4:39 AM EET 7:16 PM EET
Astronomical Twilight 4:10 AM EET 7:44 PM EET
Moon 12:06 AM EET (8/25) 2:06 PM EET (8/25)
Length of Visible Light 13h 39m
Length of Day
12h 52m
Waning Crescent, 32% of the Moon is Illuminated
Aug 25
Waning Crescent
Aug 30
New
Sep 6
First Quarter
Sep 14
Full
Sep 22
Last Quarter

Hourly Weather History & Observations

Time (EET) Temp. Heat Index Dew Point Humidity Pressure Visibility Wind Dir Wind Speed Gust Speed Precip Events Conditions
1:00 AM 78.8 °F - 57.2 °F 47% 29.89 in - Calm Calm - N/A   Clear
2:00 AM 78 °F - 58 °F 40% 29.87 in 6 mi Calm Calm - -  
2:00 AM 78.8 °F - 57.2 °F 47% 29.86 in - Calm Calm - N/A   Clear
3:00 AM 77.0 °F - 57.2 °F 50% 29.86 in - Calm Calm - N/A   Clear
5:00 AM 75 °F - 59 °F 47% 29.88 in 6 mi Calm Calm - -  
6:00 AM 73.4 °F - 57.2 °F 57% 29.89 in - Calm Calm - N/A   Clear
8:00 AM 82 °F - 57 °F 32% 29.92 in 6 mi Calm Calm - -  
8:00 AM 82.4 °F 82.0 °F 57.2 °F 42% 29.92 in - Calm Calm - N/A   Clear
9:00 AM 87.8 °F 87.6 °F 60.8 °F 40% 29.92 in - NNW 3.5 mph - N/A   Clear
10:00 AM 91.4 °F 91.4 °F 60.8 °F 36% 29.92 in - NNE 15.0 mph - N/A   Clear
11:00 AM 94 °F - 60 °F 23% 29.92 in 6 mi North 11.5 mph - -  
12:00 PM 96.8 °F 95.8 °F 57.2 °F 27% 29.92 in - North 13.8 mph - N/A   Clear
1:00 PM 98.6 °F 97.2 °F 55.4 °F 24% 29.89 in - North 15.0 mph - N/A   Clear
2:00 PM 99 °F - 55 °F 15% 29.88 in 6 mi NNW 12.7 mph - -  
2:00 PM 98.6 °F 97.2 °F 55.4 °F 24% 29.89 in - NNW 12.7 mph - N/A   Clear
4:00 PM 100.4 °F - 51.8 °F 20% 29.86 in - North 13.8 mph - N/A   Clear
5:00 PM 98.6 °F 99.4 °F 60.8 °F 29% 29.86 in - NNW 15.0 mph - N/A   Clear
8:00 PM 92 °F - 59 °F 23% 29.88 in 6 mi NW 5.8 mph - -  
8:00 PM 93.2 °F 92.6 °F 59.0 °F 32% 29.89 in - NW 5.8 mph - N/A   Clear
9:00 PM 91.4 °F 91.4 °F 60.8 °F 36% 29.89 in - NNW 4.6 mph - N/A   Clear
10:00 PM 93.2 °F 92.6 °F 59.0 °F 32% 29.89 in - North 3.5 mph - N/A   Clear
11:00 PM 85 °F - 64 °F 39% 29.89 in 6 mi NNW 3.5 mph - -  
11:00 PM 86.0 °F 87.3 °F 64.4 °F 48% 29.89 in - NNW 3.5 mph - N/A   Clear